Time,TemperatureF,DewpointF,PressureIn,WindDirection,WindDirectionDegrees,WindSpeedMPH,WindSpeedGustMPH,Humidity,HourlyPrecipIn,Conditions,Clouds,dailyrainin,SoftwareType,DateUTC
2014-01-19 00:02:00,28.6,28.0,29.10,WSW,247,2.8,2.8,94,0.00,,,0.00,Rainwise IP-100,2014-01-19 08:02:00,
2014-01-19 00:07:00,28.6,28.0,29.09,WSW,247,1.9,4.0,94,0.00,,,0.00,Rainwise IP-100,2014-01-19 08:07:00,
2014-01-19 00:12:00,28.6,28.0,29.08,WSW,247,0.0,3.0,93,0.00,,,0.00,Rainwise IP-100,2014-01-19 08:12:00,
2014-01-19 00:17:00,28.7,28.0,29.09,West,270,0.0,4.0,93,0.00,,,0.00,Rainwise IP-100,2014-01-19 08:17:00,
2014-01-19 00:22:00,28.7,28.0,29.09,West,270,0.0,0.0,93,0.00,,,0.00,Rainwise IP-100,2014-01-19 08:22:00,
2014-01-19 00:27:00,28.7,28.0,29.09,West,270,0.0,1.0,93,0.00,,,0.00,Rainwise IP-100,2014-01-19 08:27:00,
2014-01-19 00:32:00,28.7,28.0,29.09,West,270,0.0,0.0,93,0.00,,,0.00,Rainwise IP-100,2014-01-19 08:32:00,
2014-01-19 00:37:00,28.6,28.0,29.08,West,270,0.0,0.0,93,0.00,,,0.00,Rainwise IP-100,2014-01-19 08:37:00,
2014-01-19 00:42:00,28.6,28.0,29.08,WSW,247,0.0,1.0,93,0.00,,,0.00,Rainwise IP-100,2014-01-19 08:42:00,
2014-01-19 00:47:00,28.7,28.0,29.08,SW,225,2.1,3.0,93,0.00,,,0.00,Rainwise IP-100,2014-01-19 08:47:00,
2014-01-19 00:52:00,28.7,28.0,29.09,SW,225,0.0,2.0,93,0.00,,,0.00,Rainwise IP-100,2014-01-19 08:52:00,
2014-01-19 00:57:00,28.7,28.0,29.09,SW,225,0.0,2.0,93,0.00,,,0.00,Rainwise IP-100,2014-01-19 08:57:00,
2014-01-19 01:02:00,28.7,28.0,29.08,SW,225,1.9,2.0,93,0.00,,,0.00,Rainwise IP-100,2014-01-19 09:02:00,
2014-01-19 01:07:00,28.7,28.0,29.08,SW,225,2.1,2.1,93,0.00,,,0.00,Rainwise IP-100,2014-01-19 09:07:00,
2014-01-19 01:12:00,28.7,28.0,29.09,WSW,247,5.6,6.0,93,0.00,,,0.00,Rainwise IP-100,2014-01-19 09:12:00,
2014-01-19 01:17:00,28.7,28.0,29.08,WSW,247,3.5,7.0,93,0.00,,,0.00,Rainwise IP-100,2014-01-19 09:17:00,
2014-01-19 01:22:00,28.6,28.0,29.08,WSW,247,2.6,5.0,93,0.00,,,0.00,Rainwise IP-100,2014-01-19 09:22:00,
2014-01-19 01:27:00,28.7,28.0,29.08,SSW,202,1.4,3.0,93,0.00,,,0.00,Rainwise IP-100,2014-01-19 09:27:00,
2014-01-19 01:32:00,28.7,28.0,29.08,SSW,202,3.5,4.0,93,0.00,,,0.00,Rainwise IP-100,2014-01-19 09:32:00,
2014-01-19 01:37:00,28.6,28.0,29.08,SSW,202,1.9,8.0,93,0.00,,,0.00,Rainwise IP-100,2014-01-19 09:37:00,
2014-01-19 01:42:00,28.6,28.0,29.08,SW,225,3.3,4.0,93,0.00,,,0.00,Rainwise IP-100,2014-01-19 09:42:00,
2014-01-19 01:47:00,28.6,28.0,29.08,WSW,247,4.2,4.2,93,0.00,,,0.00,Rainwise IP-100,2014-01-19 09:47:00,
2014-01-19 01:52:00,28.6,28.0,29.08,SW,225,2.1,5.0,93,0.00,,,0.00,Rainwise IP-100,2014-01-19 09:52:00,
2014-01-19 01:57:00,28.6,28.0,29.08,WSW,247,3.3,3.3,93,0.00,,,0.00,Rainwise IP-100,2014-01-19 09:57:00,
2014-01-19 02:02:00,28.6,28.0,29.07,SSW,202,4.2,6.0,93,0.00,,,0.00,Rainwise IP-100,2014-01-19 10:02:00,
2014-01-19 02:07:00,28.6,28.0,29.07,SW,225,4.2,7.0,93,0.00,,,0.00,Rainwise IP-100,2014-01-19 10:07:00,
2014-01-19 02:12:00,28.6,28.0,29.08,SW,225,3.5,5.0,93,0.00,,,0.00,Rainwise IP-100,2014-01-19 10:12:00,
2014-01-19 02:17:00,28.6,28.0,29.08,WSW,247,4.4,7.0,93,0.00,,,0.00,Rainwise IP-100,2014-01-19 10:17:00,
2014-01-19 02:22:00,28.5,28.0,29.08,West,270,2.1,6.0,93,0.00,,,0.00,Rainwise IP-100,2014-01-19 10:22:00,
2014-01-19 02:27:00,28.5,28.0,29.08,WSW,247,4.7,4.7,93,0.00,,,0.00,Rainwise IP-100,2014-01-19 10:27:00,
2014-01-19 02:32:00,28.5,28.0,29.08,SSW,202,0.0,4.0,93,0.00,,,0.00,Rainwise IP-100,2014-01-19 10:32:00,
2014-01-19 02:37:00,28.5,28.0,29.07,WSW,247,2.1,4.0,93,0.00,,,0.00,Rainwise IP-100,2014-01-19 10:37:00,
2014-01-19 02:42:00,28.5,28.0,29.07,WSW,247,2.3,3.0,93,0.00,,,0.00,Rainwise IP-100,2014-01-19 10:42:00,
2014-01-19 02:47:00,28.5,28.0,29.07,WSW,247,3.0,3.0,93,0.00,,,0.00,Rainwise IP-100,2014-01-19 10:47:00,
2014-01-19 02:52:00,28.4,26.0,29.07,WSW,247,3.7,4.0,93,0.00,,,0.00,Rainwise IP-100,2014-01-19 10:52:00,
2014-01-19 02:57:00,28.5,28.0,29.07,WSW,247,1.6,5.0,93,0.00,,,0.00,Rainwise IP-100,2014-01-19 10:57:00,
2014-01-19 03:02:00,28.5,28.0,29.06,WNW,292,4.0,6.0,93,0.00,,,0.00,Rainwise IP-100,2014-01-19 11:02:00,
2014-01-19 03:07:00,28.5,28.0,29.07,WNW,292,4.9,5.0,93,0.00,,,0.00,Rainwise IP-100,2014-01-19 11:07:00,
2014-01-19 03:12:00,28.5,28.0,29.07,WNW,292,4.2,5.0,93,0.00,,,0.00,Rainwise IP-100,2014-01-19 11:12:00,
2014-01-19 03:17:00,28.5,28.0,29.07,WNW,292,1.9,4.0,93,0.00,,,0.00,Rainwise IP-100,2014-01-19 11:17:00,
2014-01-19 03:22:00,28.5,28.0,29.07,WNW,292,1.6,3.0,93,0.00,,,0.00,Rainwise IP-100,2014-01-19 11:22:00,
2014-01-19 03:27:00,28.5,28.0,29.07,WNW,292,0.0,4.0,93,0.00,,,0.00,Rainwise IP-100,2014-01-19 11:27:00,
2014-01-19 03:32:00,28.5,28.0,29.07,WNW,292,0.0,4.0,93,0.00,,,0.00,Rainwise IP-100,2014-01-19 11:32:00,
2014-01-19 03:37:00,28.5,28.0,29.07,WNW,292,5.1,5.1,93,0.00,,,0.00,Rainwise IP-100,2014-01-19 11:37:00,
2014-01-19 03:42:00,28.4,26.0,29.07,WNW,292,2.6,7.0,93,0.00,,,0.00,Rainwise IP-100,2014-01-19 11:42:00,
2014-01-19 03:47:00,28.4,26.0,29.06,WNW,292,2.1,4.0,92,0.00,,,0.00,Rainwise IP-100,2014-01-19 11:47:00,
2014-01-19 03:52:00,28.4,26.0,29.07,WNW,292,0.0,2.0,92,0.00,,,0.00,Rainwise IP-100,2014-01-19 11:52:00,
2014-01-19 03:57:00,28.4,26.0,29.06,WNW,292,0.0,1.0,93,0.00,,,0.00,Rainwise IP-100,2014-01-19 11:57:00,
2014-01-19 04:02:00,28.4,26.0,29.06,WNW,292,0.0,3.0,93,0.00,,,0.00,Rainwise IP-100,2014-01-19 12:02:00,
2014-01-19 04:07:00,28.4,26.0,29.06,WNW,292,2.6,2.6,93,0.00,,,0.00,Rainwise IP-100,2014-01-19 12:07:00,
2014-01-19 04:12:00,28.3,26.0,29.06,WNW,292,1.4,3.0,93,0.00,,,0.00,Rainwise IP-100,2014-01-19 12:12:00,
2014-01-19 04:17:00,28.3,26.0,29.06,WNW,292,2.3,4.0,93,0.00,,,0.00,Rainwise IP-100,2014-01-19 12:17:00,
2014-01-19 04:22:00,28.3,26.0,29.06,WNW,292,2.1,5.0,93,0.00,,,0.00,Rainwise IP-100,2014-01-19 12:22:00,
2014-01-19 04:27:00,28.3,26.0,29.06,WNW,292,1.4,5.0,93,0.00,,,0.00,Rainwise IP-100,2014-01-19 12:27:00,
2014-01-19 04:32:00,28.3,26.0,29.06,WNW,292,0.0,2.0,93,0.00,,,0.00,Rainwise IP-100,2014-01-19 12:32:00,
2014-01-19 04:37:00,28.3,26.0,29.06,WNW,292,0.0,4.0,93,0.00,,,0.00,Rainwise IP-100,2014-01-19 12:37:00,
2014-01-19 04:42:00,28.3,26.0,29.05,WNW,292,0.0,3.0,93,0.00,,,0.00,Rainwise IP-100,2014-01-19 12:42:00,
2014-01-19 04:47:00,28.3,26.0,29.06,WNW,292,0.0,0.0,93,0.00,,,0.00,Rainwise IP-100,2014-01-19 12:47:00,
2014-01-19 04:52:00,28.3,26.0,29.05,South,180,3.3,4.0,92,0.00,,,0.00,Rainwise IP-100,2014-01-19 12:52:00,
2014-01-19 04:57:00,28.3,26.0,29.05,SSW,202,1.4,4.0,92,0.00,,,0.00,Rainwise IP-100,2014-01-19 12:57:00,
2014-01-19 05:02:00,28.3,26.0,29.05,SSW,202,1.6,2.0,92,0.00,,,0.00,Rainwise IP-100,2014-01-19 13:02:00,
2014-01-19 05:07:00,28.3,26.0,29.05,SSW,202,1.4,1.4,92,0.00,,,0.00,Rainwise IP-100,2014-01-19 13:07:00,
2014-01-19 05:12:00,28.3,26.0,29.05,SSW,202,2.3,2.3,92,0.00,,,0.00,Rainwise IP-100,2014-01-19 13:12:00,
2014-01-19 05:17:00,28.4,26.0,29.05,SSW,202,3.7,4.0,92,0.00,,,0.00,Rainwise IP-100,2014-01-19 13:17:00,
2014-01-19 05:22:00,28.4,26.0,29.05,SSW,202,3.7,5.0,92,0.00,,,0.00,Rainwise IP-100,2014-01-19 13:22:00,
2014-01-19 05:27:00,28.4,26.0,29.05,SSW,202,3.3,4.0,92,0.00,,,0.00,Rainwise IP-100,2014-01-19 13:27:00,
2014-01-19 05:32:00,28.5,28.0,29.06,SSW,202,2.3,5.0,92,0.00,,,0.00,Rainwise IP-100,2014-01-19 13:32:00,
2014-01-19 05:37:00,28.4,26.0,29.05,SSW,202,0.0,3.0,92,0.00,,,0.00,Rainwise IP-100,2014-01-19 13:37:00,
2014-01-19 05:42:00,28.3,26.0,29.05,SSE,157,3.3,3.3,92,0.00,,,0.00,Rainwise IP-100,2014-01-19 13:42:00,
2014-01-19 05:47:00,28.3,26.0,29.05,SE,135,3.5,3.5,92,0.00,,,0.00,Rainwise IP-100,2014-01-19 13:47:00,
2014-01-19 05:52:00,28.2,26.0,29.05,SE,135,1.2,3.0,93,0.00,,,0.00,Rainwise IP-100,2014-01-19 13:52:00,
2014-01-19 05:57:00,28.2,26.0,29.05,SSW,202,2.1,3.0,93,0.00,,,0.00,Rainwise IP-100,2014-01-19 13:57:00,
2014-01-19 06:02:00,28.1,26.0,29.05,WSW,247,1.4,3.0,93,0.00,,,0.00,Rainwise IP-100,2014-01-19 14:02:00,
2014-01-19 06:07:00,28.2,26.0,29.05,WSW,247,1.4,1.4,93,0.00,,,0.00,Rainwise IP-100,2014-01-19 14:07:00,
2014-01-19 06:12:00,28.3,26.0,29.05,WSW,247,0.0,1.0,93,0.00,,,0.00,Rainwise IP-100,2014-01-19 14:12:00,
2014-01-19 06:17:00,28.3,26.0,29.05,SSW,202,2.6,4.0,93,0.00,,,0.00,Rainwise IP-100,2014-01-19 14:17:00,
2014-01-19 06:22:00,28.3,26.0,29.05,SSW,202,2.1,4.0,93,0.00,,,0.00,Rainwise IP-100,2014-01-19 14:22:00,
2014-01-19 06:27:00,28.3,26.0,29.05,SSW,202,1.2,2.0,93,0.00,,,0.00,Rainwise IP-100,2014-01-19 14:27:00,
2014-01-19 06:32:00,28.3,26.0,29.05,SSW,202,1.2,2.0,93,0.00,,,0.00,Rainwise IP-100,2014-01-19 14:32:00,
2014-01-19 06:37:00,28.3,26.0,29.05,SSE,157,2.6,4.0,93,0.00,,,0.00,Rainwise IP-100,2014-01-19 14:37:00,
2014-01-19 06:42:00,28.2,26.0,29.05,SSE,157,1.2,2.0,93,0.00,,,0.00,Rainwise IP-100,2014-01-19 14:42:00,
2014-01-19 06:47:00,28.2,26.0,29.06,SSE,157,1.9,3.0,93,0.00,,,0.00,Rainwise IP-100,2014-01-19 14:47:00,
2014-01-19 06:52:00,28.3,26.0,29.05,SSE,157,0.0,2.0,93,0.00,,,0.00,Rainwise IP-100,2014-01-19 14:52:00,
2014-01-19 06:57:00,28.2,26.0,29.05,SSE,157,0.0,1.0,93,0.00,,,0.00,Rainwise IP-100,2014-01-19 14:57:00,
2014-01-19 07:02:00,28.2,26.0,29.06,SSE,157,1.6,2.0,94,0.00,,,0.00,Rainwise IP-100,2014-01-19 15:02:00,
2014-01-19 07:07:00,28.2,26.0,29.05,SSW,202,4.2,4.2,94,0.00,,,0.00,Rainwise IP-100,2014-01-19 15:07:00,
2014-01-19 07:12:00,28.2,26.0,29.06,SSW,202,1.4,4.0,94,0.00,,,0.00,Rainwise IP-100,2014-01-19 15:12:00,
2014-01-19 07:17:00,28.2,26.0,29.05,SSW,202,0.0,2.0,94,0.00,,,0.00,Rainwise IP-100,2014-01-19 15:17:00,
2014-01-19 07:22:00,28.2,26.0,29.05,SSW,202,0.0,0.0,94,0.00,,,0.00,Rainwise IP-100,2014-01-19 15:22:00,
2014-01-19 07:27:00,28.2,26.0,29.06,SSW,202,0.0,0.0,94,0.00,,,0.00,Rainwise IP-100,2014-01-19 15:27:00,
2014-01-19 07:32:00,28.1,26.0,29.06,SSW,202,0.0,0.0,94,0.00,,,0.00,Rainwise IP-100,2014-01-19 15:32:00,
2014-01-19 07:37:00,28.1,26.0,29.06,SSW,202,0.0,0.0,94,0.00,,,0.00,Rainwise IP-100,2014-01-19 15:37:00,
2014-01-19 07:42:00,28.1,26.0,29.06,SSW,202,0.0,0.0,94,0.00,,,0.00,Rainwise IP-100,2014-01-19 15:42:00,
2014-01-19 07:47:00,28.2,26.0,29.06,SSW,202,0.0,0.0,94,0.00,,,0.00,Rainwise IP-100,2014-01-19 15:47:00,
2014-01-19 07:52:00,28.2,26.0,29.07,SSW,202,0.0,1.0,94,0.00,,,0.00,Rainwise IP-100,2014-01-19 15:52:00,
2014-01-19 07:57:00,28.2,26.0,29.07,SSW,202,0.0,1.0,94,0.00,,,0.00,Rainwise IP-100,2014-01-19 15:57:00,
2014-01-19 08:02:00,28.2,26.0,29.06,SSW,202,0.0,0.0,94,0.00,,,0.00,Rainwise IP-100,2014-01-19 16:02:00,
2014-01-19 08:07:00,28.2,26.0,29.06,SSW,202,1.2,0.0,94,0.00,,,0.00,Rainwise IP-100,2014-01-19 16:07:00,
2014-01-19 08:12:00,28.2,26.0,29.06,SSW,202,1.2,1.2,94,0.00,,,0.00,Rainwise IP-100,2014-01-19 16:12:00,
2014-01-19 08:17:00,28.3,26.0,29.07,SSW,202,1.6,1.6,94,0.00,,,0.00,Rainwise IP-100,2014-01-19 16:17:00,
2014-01-19 08:22:00,28.3,26.0,29.07,SSW,202,1.6,2.0,94,0.00,,,0.00,Rainwise IP-100,2014-01-19 16:22:00,
2014-01-19 08:27:00,28.3,26.0,29.07,SSW,202,0.0,2.0,94,0.00,,,0.00,Rainwise IP-100,2014-01-19 16:27:00,
2014-01-19 08:32:00,28.3,26.0,29.07,SSW,202,0.0,0.0,94,0.00,,,0.00,Rainwise IP-100,2014-01-19 16:32:00,
2014-01-19 08:37:00,28.3,26.0,29.08,WSW,247,2.3,0.0,94,0.00,,,0.00,Rainwise IP-100,2014-01-19 16:37:00,
2014-01-19 08:42:00,28.4,26.0,29.08,WSW,247,1.6,3.0,94,0.00,,,0.00,Rainwise IP-100,2014-01-19 16:42:00,
2014-01-19 08:47:00,28.4,26.0,29.08,WSW,247,0.0,2.0,94,0.00,,,0.00,Rainwise IP-100,2014-01-19 16:47:00,
2014-01-19 08:52:00,28.5,28.0,29.08,WSW,247,1.6,2.0,94,0.00,,,0.00,Rainwise IP-100,2014-01-19 16:52:00,
2014-01-19 08:57:00,28.5,28.0,29.08,WSW,247,0.0,1.0,94,0.00,,,0.00,Rainwise IP-100,2014-01-19 16:57:00,
2014-01-19 09:02:00,28.6,28.0,29.08,WSW,247,0.0,2.0,94,0.00,,,0.00,Rainwise IP-100,2014-01-19 17:02:00,
2014-01-19 09:07:00,28.6,28.0,29.08,WSW,247,1.9,1.9,94,0.00,,,0.00,Rainwise IP-100,2014-01-19 17:07:00,
2014-01-19 09:12:00,28.6,28.0,29.08,WSW,247,0.0,1.0,94,0.00,,,0.00,Rainwise IP-100,2014-01-19 17:12:00,
2014-01-19 09:17:00,28.6,28.0,29.08,WSW,247,1.4,1.4,94,0.00,,,0.00,Rainwise IP-100,2014-01-19 17:17:00,
2014-01-19 09:22:00,28.7,28.0,29.08,WSW,247,1.2,1.2,94,0.00,,,0.00,Rainwise IP-100,2014-01-19 17:22:00,
2014-01-19 09:27:00,28.8,28.0,29.09,WSW,247,0.0,1.0,93,0.00,,,0.00,Rainwise IP-100,2014-01-19 17:27:00,
2014-01-19 09:32:00,28.9,28.0,29.09,WSW,247,0.0,1.0,93,0.00,,,0.00,Rainwise IP-100,2014-01-19 17:32:00,
2014-01-19 09:37:00,29.0,28.0,29.09,WSW,247,0.0,0.0,93,0.00,,,0.00,Rainwise IP-100,2014-01-19 17:37:00,
2014-01-19 09:42:00,29.1,28.0,29.10,WSW,247,2.3,2.3,93,0.00,,,0.00,Rainwise IP-100,2014-01-19 17:42:00,
2014-01-19 09:47:00,29.0,28.0,29.10,WSW,247,1.9,2.0,93,0.00,,,0.00,Rainwise IP-100,2014-01-19 17:47:00,
2014-01-19 09:52:00,28.9,28.0,29.10,WSW,247,2.3,2.3,93,0.00,,,0.00,Rainwise IP-100,2014-01-19 17:52:00,
2014-01-19 09:57:00,29.0,28.0,29.10,WSW,247,1.4,3.0,93,0.00,,,0.00,Rainwise IP-100,2014-01-19 17:57:00,
2014-01-19 10:02:00,29.0,28.0,29.10,WSW,247,1.4,3.0,93,0.00,,,0.00,Rainwise IP-100,2014-01-19 18:02:00,
2014-01-19 10:07:00,29.2,28.0,29.10,WSW,247,1.9,3.0,93,0.00,,,0.00,Rainwise IP-100,2014-01-19 18:07:00,
2014-01-19 10:12:00,29.2,28.0,29.11,WNW,292,0.0,4.0,93,0.00,,,0.00,Rainwise IP-100,2014-01-19 18:12:00,
2014-01-19 10:17:00,29.3,28.0,29.10,WSW,247,3.5,3.5,93,0.00,,,0.00,Rainwise IP-100,2014-01-19 18:17:00,
2014-01-19 10:22:00,29.2,28.0,29.10,WSW,247,3.0,4.0,93,0.00,,,0.00,Rainwise IP-100,2014-01-19 18:22:00,
2014-01-19 10:27:00,29.2,28.0,29.10,West,270,1.2,3.0,93,0.00,,,0.00,Rainwise IP-100,2014-01-19 18:27:00,
2014-01-19 10:32:00,29.3,28.0,29.10,West,270,1.6,2.0,92,0.00,,,0.00,Rainwise IP-100,2014-01-19 18:32:00,
2014-01-19 10:37:00,29.5,29.0,29.10,West,270,1.9,4.0,92,0.00,,,0.00,Rainwise IP-100,2014-01-19 18:37:00,
2014-01-19 10:42:00,29.5,29.0,29.11,WNW,292,3.0,3.0,92,0.00,,,0.00,Rainwise IP-100,2014-01-19 18:42:00,
2014-01-19 10:47:00,29.7,29.0,29.10,WNW,292,1.4,3.0,92,0.00,,,0.00,Rainwise IP-100,2014-01-19 18:47:00,
2014-01-19 10:52:00,29.9,29.0,29.10,WNW,292,0.0,2.0,92,0.00,,,0.00,Rainwise IP-100,2014-01-19 18:52:00,
2014-01-19 10:57:00,30.0,29.0,29.10,WNW,292,2.6,2.6,92,0.00,,,0.00,Rainwise IP-100,2014-01-19 18:57:00,
2014-01-19 11:02:00,30.0,28.0,29.10,WNW,292,1.4,3.0,91,0.00,,,0.00,Rainwise IP-100,2014-01-19 19:02:00,
2014-01-19 11:07:00,30.0,28.0,29.10,NNW,337,0.0,1.0,91,0.00,,,0.00,Rainwise IP-100,2014-01-19 19:07:00,
2014-01-19 11:12:00,29.9,28.0,29.11,NNW,337,3.0,4.0,91,0.00,,,0.00,Rainwise IP-100,2014-01-19 19:12:00,
2014-01-19 11:17:00,29.8,28.0,29.10,NNE,22,1.6,4.0,91,0.00,,,0.00,Rainwise IP-100,2014-01-19 19:17:00,
2014-01-19 11:22:00,29.7,28.0,29.10,NNE,22,3.0,3.0,91,0.00,,,0.00,Rainwise IP-100,2014-01-19 19:22:00,
2014-01-19 11:27:00,29.6,28.0,29.11,NNE,22,1.9,4.0,91,0.00,,,0.00,Rainwise IP-100,2014-01-19 19:27:00,
2014-01-19 11:32:00,29.8,28.0,29.11,NNE,22,1.4,3.0,91,0.00,,,0.00,Rainwise IP-100,2014-01-19 19:32:00,
2014-01-19 11:37:00,29.9,28.0,29.11,NNE,22,0.0,2.0,91,0.00,,,0.00,Rainwise IP-100,2014-01-19 19:37:00,
2014-01-19 11:42:00,30.0,28.0,29.10,NNE,22,1.6,1.6,91,0.00,,,0.00,Rainwise IP-100,2014-01-19 19:42:00,
2014-01-19 11:47:00,30.0,28.0,29.10,NW,315,4.2,6.0,91,0.00,,,0.00,Rainwise IP-100,2014-01-19 19:47:00,
2014-01-19 11:52:00,29.9,28.0,29.10,NW,315,4.0,6.0,90,0.00,,,0.00,Rainwise IP-100,2014-01-19 19:52:00,
2014-01-19 11:57:00,29.8,28.0,29.10,NNW,337,4.7,6.0,91,0.00,,,0.00,Rainwise IP-100,2014-01-19 19:57:00,
2014-01-19 12:02:00,29.8,28.0,29.10,NNW,337,4.4,5.0,91,0.00,,,0.00,Rainwise IP-100,2014-01-19 20:02:00,
2014-01-19 12:07:00,29.7,28.0,29.10,NNW,337,2.3,5.0,91,0.00,,,0.00,Rainwise IP-100,2014-01-19 20:07:00,
2014-01-19 12:12:00,29.7,28.0,29.10,NNW,337,5.1,7.0,91,0.00,,,0.00,Rainwise IP-100,2014-01-19 20:12:00,
2014-01-19 12:17:00,29.7,28.0,29.10,NNW,337,5.8,6.0,91,0.00,,,0.00,Rainwise IP-100,2014-01-19 20:17:00,
2014-01-19 12:22:00,29.7,28.0,29.09,NNW,337,3.7,5.0,91,0.00,,,0.00,Rainwise IP-100,2014-01-19 20:22:00,
2014-01-19 12:27:00,29.7,28.0,29.10,NW,315,3.5,5.0,91,0.00,,,0.00,Rainwise IP-100,2014-01-19 20:27:00,
2014-01-19 12:32:00,29.5,28.0,29.10,NW,315,5.4,6.0,91,0.00,,,0.00,Rainwise IP-100,2014-01-19 20:32:00,
2014-01-19 12:37:00,29.5,28.0,29.10,NNW,337,3.7,6.0,91,0.00,,,0.00,Rainwise IP-100,2014-01-19 20:37:00,
2014-01-19 12:42:00,29.6,29.0,29.10,NNW,337,2.8,5.0,92,0.00,,,0.00,Rainwise IP-100,2014-01-19 20:42:00,
2014-01-19 12:47:00,29.7,28.0,29.10,NNW,337,3.3,4.0,91,0.00,,,0.00,Rainwise IP-100,2014-01-19 20:47:00,
2014-01-19 12:52:00,29.7,28.0,29.11,NW,315,6.3,7.0,91,0.00,,,0.00,Rainwise IP-100,2014-01-19 20:52:00,
2014-01-19 12:57:00,29.6,28.0,29.10,NNW,337,5.6,7.0,91,0.00,,,0.00,Rainwise IP-100,2014-01-19 20:57:00,
2014-01-19 13:02:00,29.5,28.0,29.10,WNW,292,2.6,6.0,91,0.00,,,0.00,Rainwise IP-100,2014-01-19 21:02:00,
2014-01-19 13:07:00,29.6,28.0,29.10,North,360,2.1,3.0,91,0.00,,,0.00,Rainwise IP-100,2014-01-19 21:07:00,
2014-01-19 13:12:00,29.7,28.0,29.10,North,360,1.6,3.0,91,0.00,,,0.00,Rainwise IP-100,2014-01-19 21:12:00,
2014-01-19 13:17:00,29.8,29.0,29.10,NNW,337,4.7,5.0,92,0.00,,,0.00,Rainwise IP-100,2014-01-19 21:17:00,
2014-01-19 13:22:00,29.7,28.0,29.10,NW,315,4.0,7.0,91,0.00,,,0.00,Rainwise IP-100,2014-01-19 21:22:00,
2014-01-19 13:27:00,29.6,28.0,29.10,NNW,337,2.1,6.0,91,0.00,,,0.00,Rainwise IP-100,2014-01-19 21:27:00,
2014-01-19 13:32:00,29.7,28.0,29.10,NNE,22,3.5,4.0,91,0.00,,,0.00,Rainwise IP-100,2014-01-19 21:32:00,
2014-01-19 13:37:00,29.7,28.0,29.09,NNE,22,4.7,5.0,91,0.00,,,0.00,Rainwise IP-100,2014-01-19 21:37:00,
2014-01-19 13:42:00,29.7,29.0,29.09,NNE,22,3.3,5.0,92,0.00,,,0.00,Rainwise IP-100,2014-01-19 21:42:00,
2014-01-19 13:47:00,29.6,29.0,29.09,NE,45,1.2,4.0,92,0.00,,,0.00,Rainwise IP-100,2014-01-19 21:47:00,
2014-01-19 13:52:00,29.6,29.0,29.09,ENE,67,3.7,3.7,92,0.00,,,0.00,Rainwise IP-100,2014-01-19 21:52:00,
2014-01-19 13:57:00,29.8,29.0,29.10,NE,45,3.0,3.0,92,0.00,,,0.00,Rainwise IP-100,2014-01-19 21:57:00,
2014-01-19 14:02:00,30.1,28.0,29.10,NNE,22,1.9,4.0,91,0.00,,,0.00,Rainwise IP-100,2014-01-19 22:02:00,
2014-01-19 14:07:00,30.2,28.0,29.10,NNE,22,2.3,3.0,91,0.00,,,0.00,Rainwise IP-100,2014-01-19 22:07:00,
2014-01-19 14:12:00,30.1,28.0,29.10,NNE,22,1.6,2.0,91,0.00,,,0.00,Rainwise IP-100,2014-01-19 22:12:00,
2014-01-19 14:17:00,30.0,28.0,29.10,NNE,22,2.6,5.0,91,0.00,,,0.00,Rainwise IP-100,2014-01-19 22:17:00,
2014-01-19 14:22:00,30.0,28.0,29.09,NNE,22,1.9,4.0,91,0.00,,,0.00,Rainwise IP-100,2014-01-19 22:22:00,
2014-01-19 14:27:00,30.0,28.0,29.10,NW,315,2.3,4.0,91,0.00,,,0.00,Rainwise IP-100,2014-01-19 22:27:00,
2014-01-19 14:32:00,30.0,28.0,29.10,WNW,292,2.1,4.0,90,0.00,,,0.00,Rainwise IP-100,2014-01-19 22:32:00,
2014-01-19 14:37:00,30.0,28.0,29.11,NW,315,2.3,4.0,90,0.00,,,0.00,Rainwise IP-100,2014-01-19 22:37:00,
2014-01-19 14:42:00,30.1,28.0,29.10,NNE,22,2.3,4.0,91,0.00,,,0.00,Rainwise IP-100,2014-01-19 22:42:00,
2014-01-19 14:47:00,30.0,28.0,29.10,NE,45,2.3,4.0,91,0.00,,,0.00,Rainwise IP-100,2014-01-19 22:47:00,
2014-01-19 14:52:00,30.0,28.0,29.10,NNE,22,2.6,4.0,91,0.00,,,0.00,Rainwise IP-100,2014-01-19 22:52:00,
2014-01-19 14:57:00,30.0,28.0,29.10,NNE,22,2.6,5.0,91,0.00,,,0.00,Rainwise IP-100,2014-01-19 22:57:00,
2014-01-19 15:02:00,30.0,28.0,29.10,ENE,67,3.5,5.0,90,0.00,,,0.00,Rainwise IP-100,2014-01-19 23:02:00,
2014-01-19 15:07:00,29.9,28.0,29.10,ENE,67,2.6,4.0,90,0.00,,,0.00,Rainwise IP-100,2014-01-19 23:07:00,
2014-01-19 15:12:00,29.9,28.0,29.10,NNE,22,0.0,3.0,90,0.00,,,0.00,Rainwise IP-100,2014-01-19 23:12:00,
2014-01-19 15:17:00,30.0,28.0,29.10,NNE,22,2.1,2.1,89,0.00,,,0.00,Rainwise IP-100,2014-01-19 23:17:00,
2014-01-19 15:22:00,30.1,28.0,29.11,NNW,337,4.2,7.0,89,0.00,,,0.00,Rainwise IP-100,2014-01-19 23:22:00,
2014-01-19 15:27:00,30.1,28.0,29.11,North,360,4.0,6.0,89,0.00,,,0.00,Rainwise IP-100,2014-01-19 23:27:00,
2014-01-19 15:32:00,30.2,28.0,29.12,North,360,0.0,5.0,89,0.00,,,0.00,Rainwise IP-100,2014-01-19 23:32:00,
2014-01-19 15:37:00,30.1,28.0,29.12,WNW,292,3.0,4.0,89,0.00,,,0.00,Rainwise IP-100,2014-01-19 23:37:00,
2014-01-19 15:42:00,30.1,28.0,29.12,NNW,337,7.0,7.0,89,0.00,,,0.00,Rainwise IP-100,2014-01-19 23:42:00,
2014-01-19 15:47:00,30.1,28.0,29.12,NNW,337,4.2,7.0,89,0.00,,,0.00,Rainwise IP-100,2014-01-19 23:47:00,
2014-01-19 15:52:00,30.1,28.0,29.12,NNW,337,3.7,6.0,89,0.00,,,0.00,Rainwise IP-100,2014-01-19 23:52:00,
2014-01-19 15:57:00,30.1,28.0,29.12,NW,315,2.1,6.0,89,0.00,,,0.00,Rainwise IP-100,2014-01-19 23:57:00,
2014-01-19 16:02:00,30.0,28.0,29.12,North,360,3.0,5.0,89,0.00,,,0.00,Rainwise IP-100,2014-01-20 00:02:00,
2014-01-19 16:07:00,29.9,28.0,29.13,NNW,337,1.2,4.0,89,0.00,,,0.00,Rainwise IP-100,2014-01-20 00:07:00,
2014-01-19 16:12:00,29.8,28.0,29.13,NNE,22,5.4,5.4,89,0.00,,,0.00,Rainwise IP-100,2014-01-20 00:12:00,
2014-01-19 16:17:00,29.8,28.0,29.13,NNW,337,3.5,7.0,89,0.00,,,0.00,Rainwise IP-100,2014-01-20 00:17:00,
2014-01-19 16:22:00,29.8,28.0,29.13,NNW,337,4.2,5.0,89,0.00,,,0.00,Rainwise IP-100,2014-01-20 00:22:00,
2014-01-19 16:27:00,29.8,28.0,29.14,NNW,337,3.7,6.0,89,0.00,,,0.00,Rainwise IP-100,2014-01-20 00:27:00,
2014-01-19 16:32:00,29.8,28.0,29.14,NNW,337,3.5,6.0,89,0.00,,,0.00,Rainwise IP-100,2014-01-20 00:32:00,
2014-01-19 16:37:00,29.9,28.0,29.14,NNW,337,4.2,7.0,89,0.00,,,0.00,Rainwise IP-100,2014-01-20 00:37:00,
2014-01-19 16:42:00,29.8,28.0,29.14,NNW,337,4.2,6.0,89,0.00,,,0.00,Rainwise IP-100,2014-01-20 00:42:00,
2014-01-19 16:47:00,29.7,28.0,29.15,NW,315,3.3,6.0,89,0.00,,,0.00,Rainwise IP-100,2014-01-20 00:47:00,
2014-01-19 16:52:00,29.7,28.0,29.15,NNW,337,5.8,6.0,89,0.00,,,0.00,Rainwise IP-100,2014-01-20 00:52:00,
2014-01-19 16:57:00,29.7,28.0,29.15,NNW,337,4.4,8.0,89,0.00,,,0.00,Rainwise IP-100,2014-01-20 00:57:00,
2014-01-19 17:02:00,29.7,28.0,29.15,North,360,4.7,7.0,89,0.00,,,0.00,Rainwise IP-100,2014-01-20 01:02:00,
2014-01-19 17:07:00,29.7,28.0,29.15,NNE,22,2.8,6.0,89,0.00,,,0.00,Rainwise IP-100,2014-01-20 01:07:00,
2014-01-19 17:12:00,29.7,28.0,29.14,NNE,22,1.4,3.0,89,0.00,,,0.00,Rainwise IP-100,2014-01-20 01:12:00,
2014-01-19 17:17:00,29.7,28.0,29.14,NNE,22,5.1,5.1,90,0.00,,,0.00,Rainwise IP-100,2014-01-20 01:17:00,
2014-01-19 17:22:00,29.7,28.0,29.14,NNE,22,2.1,5.0,90,0.00,,,0.00,Rainwise IP-100,2014-01-20 01:22:00,
2014-01-19 17:27:00,29.7,28.0,29.15,NNW,337,0.0,4.0,90,0.00,,,0.00,Rainwise IP-100,2014-01-20 01:27:00,
2014-01-19 17:32:00,29.7,28.0,29.14,NNW,337,4.7,4.7,90,0.00,,,0.00,Rainwise IP-100,2014-01-20 01:32:00,
2014-01-19 17:37:00,29.8,28.0,29.15,NNE,22,5.1,5.1,90,0.00,,,0.00,Rainwise IP-100,2014-01-20 01:37:00,
2014-01-19 17:42:00,29.9,28.0,29.15,NE,45,1.6,5.0,90,0.00,,,0.00,Rainwise IP-100,2014-01-20 01:42:00,
2014-01-19 17:47:00,29.9,28.0,29.15,NE,45,1.9,4.0,90,0.00,,,0.00,Rainwise IP-100,2014-01-20 01:47:00,
2014-01-19 17:52:00,30.0,28.0,29.15,NNE,22,2.3,5.0,90,0.00,,,0.00,Rainwise IP-100,2014-01-20 01:52:00,
2014-01-19 17:57:00,30.0,28.0,29.15,NNE,22,2.3,2.3,90,0.00,,,0.00,Rainwise IP-100,2014-01-20 01:57:00,
2014-01-19 18:02:00,30.0,28.0,29.15,NNE,22,2.3,2.3,90,0.00,,,0.00,Rainwise IP-100,2014-01-20 02:02:00,
2014-01-19 18:07:00,30.0,28.0,29.16,NNE,22,1.2,3.0,90,0.00,,,0.00,Rainwise IP-100,2014-01-20 02:07:00,
2014-01-19 18:12:00,30.0,28.0,29.16,NNE,22,2.3,3.0,90,0.00,,,0.00,Rainwise IP-100,2014-01-20 02:12:00,
2014-01-19 18:17:00,30.0,28.0,29.16,NNE,22,6.5,6.5,90,0.00,,,0.00,Rainwise IP-100,2014-01-20 02:17:00,
2014-01-19 18:22:00,30.1,28.0,29.16,NE,45,2.3,8.0,90,0.00,,,0.00,Rainwise IP-100,2014-01-20 02:22:00,
2014-01-19 18:27:00,30.2,28.0,29.16,NNW,337,5.8,7.0,89,0.00,,,0.00,Rainwise IP-100,2014-01-20 02:27:00,
2014-01-19 18:32:00,30.3,28.0,29.16,NNW,337,3.3,7.0,89,0.00,,,0.00,Rainwise IP-100,2014-01-20 02:32:00,
2014-01-19 18:37:00,30.3,28.0,29.16,North,360,3.3,6.0,89,0.00,,,0.00,Rainwise IP-100,2014-01-20 02:37:00,
2014-01-19 18:42:00,30.3,28.0,29.16,North,360,2.8,5.0,89,0.00,,,0.00,Rainwise IP-100,2014-01-20 02:42:00,
2014-01-19 18:47:00,30.2,28.0,29.17,NNE,22,6.3,6.3,89,0.00,,,0.00,Rainwise IP-100,2014-01-20 02:47:00,
2014-01-19 18:52:00,30.2,28.0,29.17,North,360,3.7,7.0,90,0.00,,,0.00,Rainwise IP-100,2014-01-20 02:52:00,
2014-01-19 18:57:00,30.3,28.0,29.17,NNE,22,3.7,7.0,90,0.00,,,0.00,Rainwise IP-100,2014-01-20 02:57:00,
2014-01-19 19:02:00,30.3,28.0,29.18,NNE,22,2.8,6.0,90,0.00,,,0.00,Rainwise IP-100,2014-01-20 03:02:00,
2014-01-19 19:07:00,30.3,28.0,29.18,NNE,22,1.9,4.0,90,0.00,,,0.00,Rainwise IP-100,2014-01-20 03:07:00,
2014-01-19 19:12:00,30.3,28.0,29.18,NNE,22,3.0,3.0,90,0.00,,,0.00,Rainwise IP-100,2014-01-20 03:12:00,
2014-01-19 19:18:00,30.4,28.0,29.18,NE,45,5.8,5.8,90,0.00,,,0.00,Rainwise IP-100,2014-01-20 03:18:00,
2014-01-19 19:23:00,30.5,28.0,29.18,NE,45,4.7,7.0,90,0.00,,,0.00,Rainwise IP-100,2014-01-20 03:23:00,
2014-01-19 19:28:00,30.6,28.0,29.18,NNE,22,1.6,7.0,89,0.00,,,0.00,Rainwise IP-100,2014-01-20 03:28:00,
2014-01-19 19:33:00,30.6,28.0,29.18,NNE,22,1.4,3.0,89,0.00,,,0.00,Rainwise IP-100,2014-01-20 03:33:00,
2014-01-19 19:38:00,30.7,28.0,29.19,NNE,22,0.0,2.0,89,0.00,,,0.00,Rainwise IP-100,2014-01-20 03:38:00,
2014-01-19 19:43:00,30.6,28.0,29.20,NNE,22,0.0,1.0,90,0.00,,,0.00,Rainwise IP-100,2014-01-20 03:43:00,
2014-01-19 19:48:00,30.6,28.0,29.20,North,360,1.9,3.0,90,0.00,,,0.00,Rainwise IP-100,2014-01-20 03:48:00,
2014-01-19 19:53:00,30.6,28.0,29.20,North,360,1.6,3.0,89,0.00,,,0.00,Rainwise IP-100,2014-01-20 03:53:00,
2014-01-19 19:58:00,30.6,28.0,29.20,North,360,0.0,2.0,89,0.00,,,0.00,Rainwise IP-100,2014-01-20 03:58:00,
2014-01-19 20:03:00,30.7,28.0,29.20,North,360,0.0,0.0,90,0.00,,,0.00,Rainwise IP-100,2014-01-20 04:03:00,
2014-01-19 20:08:00,30.7,28.0,29.21,North,360,0.0,0.0,89,0.00,,,0.00,Rainwise IP-100,2014-01-20 04:08:00,
2014-01-19 20:13:00,30.7,28.0,29.20,North,360,0.0,1.0,89,0.00,,,0.00,Rainwise IP-100,2014-01-20 04:13:00,
2014-01-19 20:18:00,30.8,28.0,29.21,North,360,0.0,0.0,89,0.00,,,0.00,Rainwise IP-100,2014-01-20 04:18:00,
2014-01-19 20:23:00,30.8,28.0,29.21,North,360,0.0,0.0,89,0.00,,,0.00,Rainwise IP-100,2014-01-20 04:23:00,
2014-01-19 20:28:00,30.8,28.0,29.21,North,360,1.9,1.9,89,0.00,,,0.00,Rainwise IP-100,2014-01-20 04:28:00,
2014-01-19 20:33:00,30.9,28.0,29.21,North,360,1.4,2.0,89,0.00,,,0.00,Rainwise IP-100,2014-01-20 04:33:00,
2014-01-19 20:38:00,30.9,28.0,29.21,North,360,1.6,1.6,89,0.00,,,0.00,Rainwise IP-100,2014-01-20 04:38:00,
2014-01-19 20:43:00,30.9,28.0,29.21,North,360,1.4,2.0,89,0.00,,,0.00,Rainwise IP-100,2014-01-20 04:43:00,
2014-01-19 20:48:00,31.0,28.0,29.21,North,360,2.6,3.0,89,0.00,,,0.00,Rainwise IP-100,2014-01-20 04:48:00,
2014-01-19 20:53:00,31.0,28.0,29.22,NNW,337,4.9,6.0,89,0.00,,,0.00,Rainwise IP-100,2014-01-20 04:53:00,
2014-01-19 20:58:00,31.1,28.0,29.22,NNW,337,4.0,9.0,89,0.00,,,0.00,Rainwise IP-100,2014-01-20 04:58:00,
2014-01-19 21:01:00,31.2,28.0,29.22,NNW,337,3.3,9.0,89,0.00,,,0.00,Rainwise IP-100,2014-01-20 05:01:00,
2014-01-19 21:02:00,31.2,28.0,29.22,NNW,337,3.3,9.0,89,0.00,,,0.00,Rainwise IP-100,2014-01-20 05:02:00,
2014-01-19 21:07:00,31.2,28.0,29.23,NNW,337,1.4,5.0,89,0.00,,,0.00,Rainwise IP-100,2014-01-20 05:07:00,
2014-01-19 21:12:00,31.2,28.0,29.23,WNW,292,3.5,3.5,89,0.00,,,0.00,Rainwise IP-100,2014-01-20 05:12:00,
2014-01-19 21:17:00,31.1,28.0,29.22,WNW,292,0.0,4.0,89,0.00,,,0.00,Rainwise IP-100,2014-01-20 05:17:00,
2014-01-19 21:22:00,31.0,28.0,29.23,WSW,247,3.3,4.0,89,0.00,,,0.00,Rainwise IP-100,2014-01-20 05:22:00,
2014-01-19 21:27:00,31.0,28.0,29.23,WSW,247,1.4,3.0,89,0.00,,,0.00,Rainwise IP-100,2014-01-20 05:27:00,
2014-01-19 21:32:00,31.0,28.0,29.23,WSW,247,1.6,1.6,89,0.00,,,0.00,Rainwise IP-100,2014-01-20 05:32:00,
2014-01-19 21:37:00,30.9,28.0,29.23,WSW,247,0.0,2.0,89,0.00,,,0.00,Rainwise IP-100,2014-01-20 05:37:00,
2014-01-19 21:42:00,30.8,28.0,29.23,WSW,247,0.0,1.0,89,0.00,,,0.00,Rainwise IP-100,2014-01-20 05:42:00,
2014-01-19 21:47:00,30.8,28.0,29.23,WSW,247,0.0,1.0,89,0.00,,,0.00,Rainwise IP-100,2014-01-20 05:47:00,
2014-01-19 21:52:00,30.9,28.0,29.23,West,270,0.0,1.0,90,0.00,,,0.00,Rainwise IP-100,2014-01-20 05:52:00,
2014-01-19 21:57:00,31.0,28.0,29.23,West,270,0.0,1.0,90,0.00,,,0.00,Rainwise IP-100,2014-01-20 05:57:00,
2014-01-19 22:02:00,31.1,28.0,29.23,West,270,0.0,0.0,90,0.00,,,0.00,Rainwise IP-100,2014-01-20 06:02:00,
2014-01-19 22:07:00,31.0,28.0,29.24,West,270,1.4,1.4,90,0.00,,,0.00,Rainwise IP-100,2014-01-20 06:07:00,
2014-01-19 22:12:00,31.0,28.0,29.24,West,270,1.4,1.4,90,0.00,,,0.00,Rainwise IP-100,2014-01-20 06:12:00,
2014-01-19 22:17:00,31.0,28.0,29.25,WNW,292,1.4,3.0,90,0.00,,,0.00,Rainwise IP-100,2014-01-20 06:17:00,
2014-01-19 22:22:00,31.1,28.0,29.24,WNW,292,2.6,3.0,90,0.00,,,0.00,Rainwise IP-100,2014-01-20 06:22:00,
2014-01-19 22:27:00,31.2,28.0,29.24,WNW,292,0.0,3.0,90,0.00,,,0.00,Rainwise IP-100,2014-01-20 06:27:00,
2014-01-19 22:32:00,31.2,28.0,29.24,WNW,292,2.1,2.1,90,0.00,,,0.00,Rainwise IP-100,2014-01-20 06:32:00,
2014-01-19 22:37:00,31.3,28.0,29.24,WNW,292,0.0,2.0,90,0.00,,,0.00,Rainwise IP-100,2014-01-20 06:37:00,
2014-01-19 22:42:00,31.4,28.0,29.25,WNW,292,1.4,2.0,90,0.00,,,0.00,Rainwise IP-100,2014-01-20 06:42:00,
2014-01-19 22:47:00,31.3,28.0,29.25,WNW,292,0.0,2.0,90,0.00,,,0.00,Rainwise IP-100,2014-01-20 06:47:00,
2014-01-19 22:52:00,31.3,28.0,29.26,WNW,292,0.0,2.0,90,0.00,,,0.00,Rainwise IP-100,2014-01-20 06:52:00,
2014-01-19 22:57:00,31.3,28.0,29.25,WNW,292,0.0,1.0,90,0.00,,,0.00,Rainwise IP-100,2014-01-20 06:57:00,
2014-01-19 23:02:00,31.3,28.0,29.25,WNW,292,0.0,0.0,89,0.00,,,0.00,Rainwise IP-100,2014-01-20 07:02:00,
2014-01-19 23:07:00,31.2,28.0,29.25,WNW,292,0.0,0.0,89,0.00,,,0.00,Rainwise IP-100,2014-01-20 07:07:00,
2014-01-19 23:12:00,31.3,28.0,29.25,NW,315,0.0,3.0,89,0.00,,,0.00,Rainwise IP-100,2014-01-20 07:12:00,
2014-01-19 23:17:00,31.4,28.0,29.25,NW,315,0.0,3.0,90,0.00,,,0.00,Rainwise IP-100,2014-01-20 07:17:00,
2014-01-19 23:22:00,31.4,28.0,29.25,WNW,292,1.2,2.0,90,0.00,,,0.00,Rainwise IP-100,2014-01-20 07:22:00,
2014-01-19 23:27:00,31.4,28.0,29.25,WNW,292,1.2,2.0,90,0.00,,,0.00,Rainwise IP-100,2014-01-20 07:27:00,
2014-01-19 23:32:00,31.5,29.0,29.25,WNW,292,1.2,1.2,90,0.00,,,0.00,Rainwise IP-100,2014-01-20 07:32:00,
2014-01-19 23:37:00,31.5,29.0,29.25,WNW,292,0.0,1.0,90,0.00,,,0.00,Rainwise IP-100,2014-01-20 07:37:00,
2014-01-19 23:42:00,31.5,29.0,29.25,WNW,292,1.6,3.0,90,0.00,,,0.00,Rainwise IP-100,2014-01-20 07:42:00,
2014-01-19 23:47:00,31.5,29.0,29.26,WNW,292,1.6,3.0,90,0.00,,,0.00,Rainwise IP-100,2014-01-20 07:47:00,
2014-01-19 23:52:00,31.5,29.0,29.26,NNW,337,5.8,5.8,90,0.00,,,0.00,Rainwise IP-100,2014-01-20 07:52:00,
2014-01-19 23:57:00,31.6,29.0,29.26,WNW,292,1.4,6.0,90,0.00,,,0.00,Rainwise IP-100,2014-01-20 07:57:00,